Wind_Speed
10 10 11 11 13 13 13 13 12 13 13 13 13 12 10 9 8 8 7 7 7 6 6 6 6 6 7 7 8 9 10 10 10 9 10 11 11 12 13 14 15 15 16
8 8 8 9 11 11 10 11 10 11 12 11 11 10 10 8 6 5 4 4 4 5 5 6 6 6 7 8 8 9 9 10 10 10 11 11 12 13 14 14 15 16 17
7 7 7 8 9 10 9 9 9 8 8 8 8 8 7 6 5 4 3 2 2 3 4 5 5 6 7 8 9 9 9 10 11 11 12 12 13 13 14 15 16 16 17
6 7 7 8 9 9 8 8 8 8 8 8 7 7 7 6 5 5 3 2 2 3 4 5 5 6 7 8 9 10 10 11 11 12 12 13 14 14 14 15 16 17 18
5 5 6 7 8 8 8 8 8 8 8 8 7 7 6 6 6 5 3 3 3 3 4 5 6 7 8 9 10 11 11 12 12 12 13 14 15 15 15 16 17 18 18
5 5 6 7 7 7 7 8 8 9 8 8 7 7 6 6 5 4 3 3 3 3 4 5 6 7 9 10 10 11 12 12 13 13 14 14 15 16 17 18 18 19 20
4 5 6 6 6 7 7 7 8 8 8 8 8 7 6 5 4 3 3 2 2 3 4 5 7 8 9 10 11 12 12 13 13 14 14 15 15 16 17 18 19 20 20
3 4 5 5 5 6 6 6 7 8 8 8 8 7 6 6 5 4 2 2 2 3 4 6 7 8 10 11 12 12 13 14 14 15 15 16 17 17 18 19 19 20 21
3 3 4 5 5 6 6 5 7 8 9 8 8 7 7 6 5 3 2 2 2 4 5 6 7 9 10 11 12 13 14 14 15 16 16 17 17 18 19 19 20 20 21
4 4 5 5 5 6 5 6 6 7 7 8 8 7 7 5 5 4 3 3 3 5 6 7 8 10 11 12 13 14 15 15 16 17 18 18 19 19 20 20 21 22 22
5 5 5 5 7 7 6 6 7 7 7 7 7 6 6 5 5 4 4 5 5 6 7 9 10 12 13 14 14 15 16 17 17 18 19 20 20 20 21 22 22 23 23
6 5 6 6 7 7 7 7 7 7 7 7 7 7 6 5 5 6 7 7 8 9 10 11 12 14 15 15 16 17 18 18 19 20 20 21 21 21 22 23 23 24 24
8 7 6 7 8 8 8 8 8 8 8 8 8 7 7 7 7 8 8 9 10 11 13 14 15 16 17 18 18 19 20 20 21 21 22 22 22 23 23 24 24 25 26
10 9 8 8 8 9 9 9 9 10 10 9 9 9 9 9 9 10 11 12 13 14 15 16 17 18 19 20 21 21 22 22 22 23 23 23 24 25 25 26 26 26 27
11 11 10 10 9 9 10 10 10 10 10 10 11 11 11 11 12 13 13 14 15 16 18 19 20 21 21 22 22 23 23 23 24 24 25 25 26 26 27 27 28 28 28
12 12 12 12 11 11 11 11 12 12 12 12 12 13 13 14 14 15 16 17 18 19 20 21 21 22 23 23 24 24 24 25 25 26 26 27 27 28 29 29 29 30 30
14 13 13 12 12 12 13 13 13 13 14 14 14 15 15 16 17 17 18 19 20 21 22 23 23 24 24 25 25 26 26 26 27 27 28 28 29 29 30 30 31 31 32
14 14 14 13 13 14 14 14 14 15 16 16 17 17 17 18 19 19 20 21 22 23 23 24 25 25 25 26 27 27 28 28 28 29 29 30 30 31 31 32 32 32 33
16 16 16 15 15 15 16 16 16 17 17 17 18 18 19 19 20 21 22 23 23 24 25 25 25 26 27 28 28 29 29 29 29 30 31 31 32 33 33 34 34 34 35
17 17 17 17 17 16 17 18 18 18 18 18 19 19 20 21 22 23 24 25 25 26 26 26 27 27 28 29 30 30 30 30 31 31 32 33 34 34 35 35 35 35 36
19 19 18 18 18 18 19 19 19 20 20 20 20 21 22 23 23 24 25 26 26 27 27 28 28 29 29 30 31 32 32 32 33 33 34 34 35 36 36 37 36 37 37
20 20 20 20 20 20 20 20 21 22 22 22 22 23 24 25 25 26 26 27 28 28 28 29 29 30 31 32 32 33 34 34 35 35 36 36 37 38 38 38 39 39 39
22 21 22 21 21 21 21 21 21 22 23 23 24 24 25 26 27 27 27 28 29 29 29 30 31 31 32 33 34 34 35 36 36 36 38 38 39 39 39 39 40 41 41
22 23 23 22 22 23 22 22 23 23 25 25 26 26 28 28 28 28 28 29 30 29 30 31 32 33 34 35 36 36 37 38 38 39 40 40 40 41 41 41 42 42 43
23 24 24 24 24 24 24 25 25 25 26 27 28 28 29 30 29 29 30 30 30 31 32 33 34 35 36 37 37 38 40 41 41 42 42 42 42 42 43 43 43 43 43
24 24 25 25 26 27 26 27 28 28 27 28 28 29 30 30 31 31 32 32 32 33 34 35 36 37 37 38 39 40 42 43 44 44 44 44 44 44 44 44 44 44 44
Wind_Direction
267 252 238 232 233 235 237 238 244 242 239 237 238 243 247 252 252 256 269 274 278 285 298 301 308 312 314 315 313 312 311 310 308 302 296 292 287 284 283 281 279 274 269
256 244 231 226 227 232 234 240 242 239 235 235 235 236 241 244 242 243 257 269 281 298 308 311 312 316 322 322 320 319 318 315 312 305 301 297 294 291 288 285 283 279 274
254 242 234 232 226 229 234 243 241 227 220 214 214 218 222 224 224 231 246 250 277 303 312 319 323 326 328 327 326 324 323 321 316 310 305 301 298 296 294 291 287 285 281
244 234 229 230 224 223 231 238 231 216 206 205 207 212 218 222 221 224 228 242 279 309 324 328 332 335 334 333 333 330 327 323 320 316 312 309 306 303 299 295 292 289 286
233 223 228 230 224 222 225 226 223 212 205 206 205 207 208 213 217 221 233 255 284 308 321 330 336 337 336 335 333 331 329 325 323 320 316 313 311 309 305 300 296 292 290
227 220 220 219 219 219 221 223 217 211 206 202 201 202 205 211 215 223 240 263 292 310 322 333 336 337 337 337 337 335 333 330 327 325 322 318 314 312 309 305 301 296 292
225 219 214 214 221 221 218 217 209 203 201 200 201 206 209 213 218 224 237 268 298 312 322 331 334 336 338 339 338 336 334 332 329 326 324 321 318 314 311 308 305 301 298
225 215 212 212 219 219 212 212 205 201 200 202 206 208 212 216 221 228 238 265 297 317 329 331 333 336 337 337 336 335 333 332 330 327 324 321 319 316 313 311 308 305 302
232 219 212 210 211 205 200 201 199 199 200 203 204 204 207 216 225 225 231 260 295 318 327 329 332 335 337 337 335 334 333 332 330 328 325 324 321 317 316 313 311 309 306
249 231 219 215 210 201 200 198 194 193 196 199 200 205 211 218 224 230 237 271 297 312 321 327 329 331 331 332 332 331 330 329 328 327 325 324 322 319 317 315 313 311 309
253 246 236 230 213 204 204 200 203 202 201 202 203 205 207 217 227 237 257 278 294 307 314 320 323 324 324 325 326 327 327 326 325 324 323 322 321 319 317 316 315 313 311
253 251 246 234 218 211 211 210 212 210 208 207 208 210 218 234 244 257 269 280 290 302 310 314 318 318 318 319 321 323 323 323 323 322 321 321 320 319 318 316 315 314 312
253 254 250 239 227 220 218 218 219 218 218 219 220 224 237 249 258 266 275 283 291 298 305 309 311 313 314 315 317 319 320 320 320 320 319 318 318 317 316 315 314 312 311
252 249 246 241 233 228 226 227 225 223 225 228 234 241 250 259 266 272 278 285 292 298 302 305 307 309 311 312 313 315 317 317 317 317 317 316 316 315 314 314 313 312 311
253 247 245 241 237 236 235 234 233 231 234 239 245 251 257 264 271 275 280 286 292 297 300 302 305 307 309 310 312 313 314 313 314 315 315 315 314 313 313 312 312 311 310
254 250 247 243 239 239 239 239 240 242 245 249 253 258 263 268 273 278 281 285 290 295 298 300 302 304 306 307 309 311 312 312 313 313 314 314 313 313 313 312 312 311 309
257 254 250 247 245 245 245 246 247 249 252 256 260 263 267 271 275 278 282 285 289 294 298 300 300 302 304 306 307 309 310 311 312 312 312 313 313 312 311 311 311 310 309
256 254 252 252 252 252 252 252 254 255 257 259 262 264 268 272 276 279 282 285 289 293 297 299 299 301 303 305 306 307 308 309 310 311 311 312 313 312 312 311 310 309 308
258 257 254 255 256 257 257 257 258 259 260 261 263 266 269 272 276 278 282 285 288 291 295 298 298 299 302 303 304 305 306 307 308 309 310 311 311 312 311 311 310 309 308
257 259 260 260 261 259 259 261 262 262 262 263 265 268 271 274 277 280 283 284 288 291 293 296 297 299 300 301 303 304 305 306 307 308 309 309 310 311 311 310 310 309 308
256 258 259 260 262 263 262 263 263 264 264 265 267 270 273 275 278 281 283 285 287 289 292 294 295 297 299 301 302 303 304 305 307 308 308 309 309 310 311 310 310 309 308
256 259 260 261 264 265 265 265 265 266 268 269 270 272 273 275 278 281 283 285 286 289 291 293 295 297 299 300 301 302 304 305 306 308 308 309 309 309 310 310 309 309 308
257 258 260 262 264 266 267 266 267 268 270 272 273 274 275 278 280 282 285 287 287 289 291 293 294 295 297 299 300 301 302 304 306 307 307 308 308 308 308 308 307 307 307
258 260 260 261 263 265 266 267 268 270 271 272 273 276 278 280 281 283 286 288 288 289 292 293 293 295 296 298 299 300 302 303 305 305 306 307 307 307 307 307 306 306 306
260 259 260 262 263 266 267 267 267 270 273 274 274 276 279 280 281 283 286 288 289 289 291 292 293 295 297 299 300 301 303 304 305 306 306 306 306 306 306 305 305 305 304
259 260 261 262 264 265 267 268 268 271 274 276 277 279 279 279 281 283 285 285 286 288 289 291 293 295 297 299 300 302 303 304 305 305 306 305 305 305 305 305 304 304 304
Height
5840 5839 5840 5842 5845 5847 5849 5851 5852 5854 5856 5858 5861 5863 5865 5866 5867 5868 5869 5869 5870 5870 5871 5871 5871 5871 5871 5870 5869 5869 5869 5868 5868 5868 5868 5868 5868 5868 5868 5868 5868 5868 5868
5838 5839 5840 5842 5844 5846 5847 5849 5850 5852 5854 5857 5859 5861 5863 5864 5865 5866 5867 5868 5869 5869 5870 5870 5870 5870 5869 5869 5868 5868 5867 5867 5866 5866 5866 5866 5866 5865 5865 5865 5865 5865 5865
5837 5838 5839 5841 5843 5845 5847 5848 5850 5851 5853 5855 5857 5859 5861 5863 5864 5865 5866 5867 5868 5868 5869 5869 5869 5869 5868 5868 5867 5866 5866 5865 5864 5864 5864 5863 5863 5862 5862 5861 5861 5861 5861
5837 5838 5839 5840 5841 5843 5846 5847 5849 5851 5852 5854 5856 5858 5860 5862 5863 5864 5865 5866 5867 5868 5868 5868 5868 5868 5867 5867 5866 5865 5864 5863 5863 5862 5861 5860 5859 5859 5859 5858 5857 5857 5857
5836 5837 5838 5839 5841 5843 5844 5846 5848 5849 5851 5853 5855 5857 5859 5861 5863 5864 5865 5866 5866 5867 5867 5867 5867 5867 5866 5865 5864 5864 5863 5862 5861 5860 5859 5857 5856 5856 5855 5854 5854 5853 5852
5835 5836 5838 5839 5840 5842 5843 5845 5846 5848 5850 5852 5854 5856 5858 5860 5861 5863 5864 5865 5865 5866 5866 5866 5866 5866 5865 5864 5863 5862 5861 5860 5859 5857 5856 5855 5854 5853 5852 5851 5850 5849 5848
5835 5836 5837 5838 5840 5841 5842 5844 5845 5847 5849 5851 5853 5856 5857 5859 5860 5862 5863 5864 5864 5865 5865 5865 5865 5865 5864 5863 5862 5861 5859 5858 5857 5855 5854 5853 5851 5850 5848 5847 5846 5844 5843
5836 5836 5837 5838 5839 5840 5842 5843 5844 5846 5848 5850 5852 5854 5856 5858 5859 5861 5862 5863 5863 5864 5864 5864 5864 5863 5862 5861 5860 5859 5858 5856 5854 5853 5851 5850 5848 5846 5845 5843 5842 5840 5839
5836 5836 5837 5838 5839 5840 5841 5843 5844 5846 5848 5850 5851 5853 5855 5857 5858 5860 5861 5862 5862 5863 5863 5863 5862 5862 5861 5860 5858 5857 5855 5854 5852 5850 5848 5847 5845 5843 5841 5839 5837 5836 5834
5836 5836 5836 5837 5838 5839 5841 5842 5844 5846 5847 5849 5851 5853 5854 5856 5857 5859 5860 5861 5861 5861 5861 5861 5860 5860 5859 5858 5856 5855 5853 5851 5850 5848 5846 5843 5841 5839 5837 5835 5833 5831 5829
5835 5835 5836 5836 5837 5838 5840 5842 5844 5845 5847 5848 5850 5852 5854 5855 5856 5858 5859 5859 5860 5860 5859 5859 5859 5858 5857 5855 5854 5852 5851 5849 5847 5844 5842 5840 5838 5835 5833 5830 5828 5826 5824
5834 5835 5835 5835 5836 5838 5840 5841 5843 5844 5846 5848 5849 5851 5852 5854 5855 5856 5857 5857 5858 5858 5858 5857 5856 5855 5854 5853 5851 5849 5847 5845 5843 5841 5838 5836 5833 5831 5829 5826 5823 5821 5818
5833 5833 5834 5835 5836 5837 5839 5840 5842 5843 5845 5847 5848 5850 5851 5852 5853 5854 5855 5855 5856 5855 5855 5854 5854 5852 5851 5849 5848 5846 5844 5842 5839 5837 5834 5832 5829 5827 5824 5821 5818 5816 5813
5831 5832 5833 5833 5835 5836 5837 5839 5840 5842 5843 5845 5847 5848 5849 5850 5851 5852 5852 5853 5853 5852 5852 5851 5850 5849 5847 5846 5844 5842 5840 5837 5835 5832 5830 5827 5824 5821 5819 5816 5813 5810 5807
5829 5830 5831 5832 5833 5834 5836 5837 5839 5840 5841 5843 5844 5845 5846 5847 5848 5849 5849 5849 5849 5849 5848 5847 5846 5844 5843 5841 5839 5837 5835 5832 5830 5827 5824 5822 5819 5816 5813 5810 5806 5803 5800
5826 5827 5828 5829 5831 5832 5834 5835 5836 5838 5839 5840 5841 5842 5843 5844 5845 5845 5845 5845 5845 5844 5843 5842 5841 5840 5838 5836 5834 5832 5829 5827 5824 5822 5819 5816 5813 5809 5806 5803 5799 5796 5793
5823 5824 5825 5826 5828 5829 5831 5832 5833 5835 5836 5837 5838 5839 5839 5840 5840 5841 5841 5841 5840 5839 5838 5837 5836 5834 5832 5830 5828 5826 5823 5821 5818 5815 5812 5809 5806 5803 5800 5796 5792 5788 5784
5819 5820 5822 5823 5825 5826 5827 5828 5830 5831 5832 5833 5834 5834 5835 5835 5835 5836 5835 5835 5835 5834 5833 5831 5830 5828 5826 5824 5822 5819 5817 5814 5811 5809 5805 5802 5799 5795 5792 5788 5785 5780 5776
5816 5817 5818 5820 5821 5822 5823 5824 5825 5827 5827 5828 5829 5829 5830 5830 5830 5830 5830 5829 5828 5827 5826 5824 5823 5821 5819 5817 5815 5812 5810 5807 5805 5801 5798 5795 5791 5787 5784 5780 5776 5772 5767
5812 5813 5814 5815 5816 5818 5819 5820 5821 5822 5822 5823 5823 5824 5824 5824 5824 5824 5823 5823 5822 5820 5819 5818 5816 5814 5812 5810 5807 5805 5802 5800 5797 5794 5790 5787 5783 5779 5775 5771 5767 5763 5758
5807 5808 5809 5811 5812 5813 5814 5815 5815 5816 5817 5817 5818 5818 5818 5818 5818 5817 5817 5816 5815 5813 5812 5811 5809 5807 5805 5802 5800 5797 5794 5791 5788 5785 5782 5778 5774 5770 5766 5761 5757 5753 5748
5802 5803 5804 5805 5806 5807 5808 5809 5810 5810 5810 5811 5812 5812 5811 5811 5811 5810 5809 5808 5807 5806 5804 5803 5801 5799 5796 5794 5791 5789 5786 5782 5779 5776 5772 5768 5764 5760 5756 5751 5747 5742 5738
5796 5798 5799 5800 5801 5801 5802 5802 5803 5804 5804 5805 5805 5805 5804 5804 5804 5803 5802 5801 5799 5798 5796 5795 5793 5791 5788 5786 5783 5780 5777 5773 5770 5767 5763 5759 5754 5750 5746 5741 5736 5731 5727
5790 5791 5792 5794 5794 5795 5795 5796 5796 5797 5797 5797 5797 5797 5797 5796 5796 5795 5794 5792 5791 5790 5788 5786 5784 5782 5779 5776 5773 5770 5767 5763 5760 5756 5753 5748 5744 5739 5735 5730 5725 5720 5715
5784 5785 5786 5787 5788 5788 5789 5789 5789 5789 5789 5789 5789 5789 5789 5788 5787 5786 5785 5784 5783 5781 5779 5777 5775 5772 5769 5766 5763 5759 5756 5752 5748 5744 5741 5736 5732 5728 5723 5718 5713 5708 5703
5777 5778 5779 5780 5780 5781 5781 5782 5782 5782 5781 5781 5781 5781 5780 5780 5779 5777 5777 5775 5774 5772 5770 5767 5765 5762 5759 5755 5752 5748 5745 5741 5737 5732 5728 5724 5719 5715 5710 5705 5700 5695 5690